Wind_Speed
16 14 12 12 12 11 10 10 9 8 7 6 6 5 5 5 4 4 3 3 3 4 4 4 5 6 6 6 5 5 5 6 5 5 6 6 4 7 10 10 10 10
15 14 13 12 12 12 11 10 10 9 8 7 7 6 6 5 4 3 2 2 3 3 3 4 4 5 6 5 6 5 5 6 6 6 5 6 5 5 7 9 10 9
14 13 13 12 12 13 12 12 11 10 9 8 8 7 7 6 4 3 2 2 3 3 3 3 4 5 5 5 6 5 5 6 7 6 5 6 5 4 5 7 7 9
14 14 14 13 13 14 13 12 11 10 10 9 8 8 7 6 5 4 3 2 2 2 3 3 3 3 4 4 5 4 4 5 6 6 6 6 6 5 5 6 8 10
15 15 14 13 13 14 14 13 11 10 10 9 8 7 7 7 6 5 4 3 3 3 3 3 3 3 3 3 4 5 5 5 5 7 6 6 7 7 7 8 10 11
16 15 15 14 14 14 13 12 11 10 10 9 8 7 7 7 6 5 4 4 4 4 4 4 4 3 3 3 4 5 5 5 6 7 8 8 8 8 8 9 9 9
18 17 16 16 15 15 13 12 11 10 10 9 8 8 7 7 5 5 4 4 4 4 4 4 4 4 3 3 3 4 4 5 6 8 9 9 8 8 9 10 11 12
19 17 16 16 16 15 14 13 12 10 10 9 8 8 7 6 6 4 4 4 4 4 3 2 3 3 3 3 3 3 3 3 4 5 5 5 5 6 8 9 11 13
20 18 17 16 16 15 14 14 12 11 10 9 8 7 7 6 5 5 4 5 4 4 3 2 2 3 3 3 3 3 3 3 3 4 3 3 4 5 6 6 6 9
20 20 19 18 16 15 15 14 13 12 10 9 8 7 7 5 5 5 4 5 5 4 5 4 3 4 4 4 3 4 4 4 4 4 4 5 6 7 8 6 5 6
20 20 19 18 17 16 16 15 14 12 10 9 8 7 7 6 5 5 5 6 6 5 6 5 4 4 4 4 3 3 4 5 5 5 6 7 6 6 7 7 7 7
21 21 20 19 17 17 17 15 14 13 11 10 9 8 7 6 6 5 5 6 6 6 6 5 5 5 5 4 4 3 3 4 5 6 6 6 5 5 6 5 6 7
20 21 20 19 18 18 18 16 14 13 12 10 9 9 7 6 6 5 5 6 6 5 5 4 4 3 4 5 4 5 4 3 4 5 5 6 5 6 6 6 6 6
20 20 20 19 19 19 18 16 15 13 12 10 10 9 7 6 6 6 5 5 5 5 4 4 3 3 4 4 2 4 5 5 4 5 5 6 5 5 5 5 6 6
19 19 19 18 18 18 18 16 15 13 12 11 10 9 8 7 6 6 6 6 6 6 4 4 4 4 4 4 3 2 2 5 7 6 5 6 6 6 6 5 6 6
19 19 20 20 19 19 18 16 15 14 13 12 11 10 9 7 7 7 6 7 8 6 6 4 2 2 3 2 2 3 2 1 5 7 6 6 7 7 6 6 7 6
20 20 20 21 21 20 19 18 18 17 15 12 11 11 10 7 7 7 6 7 8 8 6 5 4 3 3 3 2 2 3 5 2 4 6 6 6 7 6 6 7 6
20 21 22 23 23 23 22 21 19 17 15 13 11 11 11 8 6 7 7 9 11 10 8 7 6 5 4 4 3 3 2 3 1 2 4 5 5 6 6 7 8 7
21 22 23 25 26 25 23 20 16 15 15 13 11 12 12 11 9 9 10 10 11 11 10 9 8 7 6 6 5 4 4 3 1 2 4 4 4 4 3 3 5 5
24 25 24 23 23 22 20 18 16 15 14 12 11 12 14 14 12 12 11 10 10 12 11 10 9 8 7 7 6 5 6 4 1 1 2 2 2 2 1 0 1 1
25 28 26 24 22 21 19 17 16 16 15 14 13 13 13 13 13 13 12 11 10 12 12 11 10 8 7 7 6 6 6 3 1 1 2 2 2 1 1 1 1 2
24 27 26 24 22 20 18 18 17 16 16 16 16 15 13 13 13 12 12 11 10 10 10 11 10 7 6 6 6 7 6 3 1 3 2 2 2 2 2 2 1 1
23 24 24 23 22 20 19 18 16 15 15 15 16 16 14 12 12 13 13 12 10 9 8 8 9 8 6 5 5 7 6 4 1 2 2 1 1 1 2 2 2 2
22 23 24 23 22 20 19 17 16 16 15 14 14 14 13 11 12 13 13 12 11 10 9 7 6 6 5 4 3 4 5 3 3 2 1 1 2 2 2 2 3 5
23 22 23 23 22 20 19 18 17 16 15 14 13 12 12 11 11 12 12 11 10 10 10 7 5 6 6 5 5 3 3 3 5 4 2 3 4 4 4 3 3 6
23 22 21 21 19 18 17 16 14 13 13 13 11 10 9 9 9 9 9 8 6 5 5 4 3 4 7 8 7 6 4 5 6 5 4 5 6 5 5 5 4 4
Wind_Direction
185 177 169 163 154 153 155 147 141 141 136 133 133 130 130 132 136 148 149 154 179 187 191 199 198 191 191 193 194 200 204 200 208 208 188 193 186 155 165 176 176 183
175 170 165 159 153 151 147 139 137 136 130 128 126 122 124 128 133 145 154 176 196 189 186 195 197 193 189 187 189 194 192 192 200 203 192 190 188 176 177 175 180 186
168 166 163 156 149 145 139 135 135 134 132 128 125 127 131 134 139 139 144 194 211 191 180 194 199 195 193 188 190 195 193 194 192 189 192 190 186 195 183 167 178 187
165 162 159 152 144 142 139 136 136 137 136 133 132 137 138 141 143 138 142 164 189 186 187 199 199 196 203 195 192 201 197 189 185 184 189 186 182 189 180 172 181 181
164 160 154 149 145 144 141 139 140 139 138 134 133 136 137 141 143 140 144 149 157 179 194 205 204 199 208 208 211 213 198 184 187 188 188 188 187 182 178 186 182 170
164 159 156 156 152 148 144 141 142 140 136 134 131 134 136 140 145 147 151 157 165 179 196 207 211 214 213 217 228 219 200 195 201 198 197 199 196 184 180 190 184 174
163 157 156 159 154 150 146 144 144 140 137 135 133 134 139 145 152 151 157 169 175 183 198 204 206 215 222 221 226 219 200 201 213 212 206 196 185 181 185 190 187 188
161 155 155 156 154 152 150 148 148 144 141 139 137 139 146 152 154 152 162 172 172 177 189 199 200 205 218 218 216 214 200 201 211 216 211 189 176 184 191 187 183 186
161 159 160 159 158 157 155 154 152 148 146 145 143 148 151 151 152 161 172 167 159 157 153 160 171 170 179 186 187 189 194 197 192 194 192 177 176 181 182 179 177 183
164 164 164 161 161 161 158 156 153 151 153 153 152 153 151 148 151 159 167 159 150 145 140 141 149 152 155 162 168 173 177 177 171 170 168 167 175 173 167 162 166 185
170 167 165 161 162 163 160 158 157 155 155 156 157 154 149 149 153 159 165 159 157 159 153 147 151 156 153 153 165 166 166 170 162 157 163 168 175 173 160 153 160 179
172 168 165 162 162 161 160 160 158 155 155 156 156 153 151 153 157 162 166 163 169 176 169 156 156 161 160 162 175 171 164 163 152 153 167 170 175 173 160 158 167 174
168 166 164 162 159 158 159 160 157 153 153 152 150 149 151 156 157 158 166 168 168 168 163 154 156 164 158 159 181 187 183 171 153 158 160 156 170 179 170 174 180 172
162 162 160 157 154 155 158 158 154 152 151 146 144 145 149 153 152 155 164 161 153 154 151 131 96 60 96 115 143 182 187 194 186 185 176 162 172 180 173 185 189 180
149 149 151 150 149 151 154 153 149 147 146 142 139 139 140 142 145 154 156 146 145 145 125 105 71 55 96 102 54 75 180 205 198 203 207 189 193 196 188 199 197 179
138 137 140 141 142 142 141 139 138 137 138 140 138 134 132 132 138 146 150 153 152 126 96 109 115 93 138 154 65 65 27 314 189 199 212 206 208 210 203 204 202 183
131 129 130 130 132 131 127 128 132 132 127 127 129 128 126 129 139 144 143 141 134 109 101 136 143 124 166 194 167 131 47 42 106 197 209 208 209 208 202 199 200 195
127 126 126 127 130 132 131 131 132 129 122 114 113 120 124 126 134 137 124 109 106 109 124 139 137 135 159 176 182 186 129 86 59 210 199 210 212 208 209 199 194 193
124 123 124 128 132 134 134 132 128 129 130 122 111 111 114 116 119 122 117 109 112 127 136 136 140 145 151 161 171 176 166 167 259 234 192 206 213 215 234 208 184 188
126 122 119 121 123 124 125 126 126 129 133 133 131 123 115 113 114 115 114 114 125 138 139 135 138 142 148 158 157 157 169 179 298 285 186 189 197 212 266 21 156 196
119 118 116 117 119 120 120 122 125 125 124 127 131 130 122 115 113 113 113 113 123 133 134 130 129 132 141 151 153 155 156 148 118 234 215 205 184 192 226 228 251 288
106 108 108 112 117 120 120 120 120 121 124 124 121 119 117 113 109 109 108 106 109 114 119 120 119 122 133 141 150 154 135 106 206 219 214 211 183 189 235 226 185 193
103 107 106 108 111 111 111 113 110 108 116 124 123 117 110 105 106 109 108 106 103 98 101 111 114 112 119 125 140 152 133 83 340 233 213 240 215 234 270 233 199 236
98 106 108 111 113 109 109 112 108 105 107 113 115 111 104 101 106 109 108 108 108 101 89 85 91 91 93 99 105 141 142 89 5 311 262 310 307 302 307 272 258 287
87 95 102 107 109 108 110 111 107 107 110 108 103 102 102 103 105 105 104 103 106 106 94 78 62 51 47 45 43 54 107 81 20 355 4 7 339 325 328 320 296 298
76 78 85 93 98 102 104 104 101 104 110 107 99 97 104 112 113 110 110 108 105 108 104 85 45 15 9 3 1 4 29 54 35 15 13 8 348 333 322 313 299 286
Height
796 797 798 799 799 801 802 803 805 806 807 808 809 810 812 813 814 815 815 816 817 817 818 819 819 820 821 821 822 823 824 825 826 827 828 830 831 833 836 838 840 840
795 796 797 798 799 801 802 803 805 806 807 808 809 810 812 813 814 815 815 816 817 818 818 819 820 821 821 822 823 823 824 826 827 827 828 830 831 833 834 837 839 839
794 795 797 798 799 801 802 804 805 806 808 809 810 811 812 813 814 815 816 817 817 818 819 820 821 821 822 823 823 824 825 826 827 828 829 830 831 833 834 836 837 838
793 795 797 798 800 801 803 804 806 807 808 809 810 811 812 813 815 815 816 817 818 819 820 821 821 822 823 824 824 825 826 827 828 829 829 830 832 833 834 835 836 837
794 795 797 799 801 802 804 805 807 808 809 810 811 812 813 814 815 816 817 818 818 819 820 821 822 823 824 824 825 825 826 827 828 829 830 830 832 833 834 834 836 837
794 795 797 800 801 803 804 805 807 809 810 811 812 813 813 814 815 816 817 818 819 820 820 821 822 823 824 824 825 826 826 828 828 829 830 831 832 833 833 834 835 836
793 794 797 800 801 803 804 806 808 809 810 811 812 813 814 815 816 817 817 818 819 820 820 821 822 823 824 825 825 826 826 827 828 829 830 831 831 832 834 835 835 836
792 793 796 799 800 802 804 806 808 809 811 812 813 814 815 815 816 817 818 818 819 820 821 821 822 823 824 825 825 826 827 828 828 829 829 830 831 832 833 835 836 836
791 793 796 798 800 802 804 806 808 809 811 812 813 814 815 816 817 818 818 819 819 820 821 822 823 823 824 825 826 826 827 828 828 829 829 830 831 832 833 834 835 836
790 793 795 798 800 802 804 806 808 809 811 812 814 815 816 816 817 818 819 819 820 821 821 823 823 824 825 825 826 826 827 828 828 829 830 831 831 832 833 834 836 837
790 792 794 796 799 801 804 806 808 809 811 813 814 815 816 817 818 818 819 820 820 821 822 823 824 824 825 825 826 827 827 828 828 829 830 831 831 832 832 834 836 837
789 791 794 796 798 801 804 806 808 809 811 813 814 815 816 817 818 819 819 820 821 821 822 823 824 825 825 826 827 828 828 828 829 830 830 831 832 832 833 835 836 837
789 791 793 796 798 801 803 806 808 810 811 813 814 816 817 818 818 819 820 820 821 822 822 823 825 825 826 827 828 829 829 829 830 831 831 832 833 833 834 836 837 838
789 791 793 796 798 800 803 805 808 810 811 813 815 816 817 818 819 820 820 821 822 823 824 825 826 826 826 827 828 829 830 831 831 832 832 833 834 835 836 837 838 839
789 791 793 796 798 800 803 806 808 810 811 814 815 817 818 819 820 821 821 822 823 824 825 826 827 827 827 828 829 829 830 831 832 833 833 834 835 836 837 838 838 839
789 791 794 796 798 801 803 806 808 810 812 814 815 816 818 819 821 822 822 823 824 825 826 826 828 828 828 829 830 830 830 831 832 833 834 835 836 836 837 838 838 839
788 791 794 796 798 801 803 806 808 810 811 814 815 816 818 820 821 822 823 823 824 825 826 827 829 830 830 831 831 832 832 831 832 833 834 835 835 836 837 838 839 839
787 790 792 795 798 800 803 805 808 810 812 814 816 817 818 820 822 823 824 825 825 826 827 828 830 830 831 832 832 833 833 833 833 834 834 835 836 836 837 837 838 839
787 789 792 795 797 800 802 805 808 811 812 815 817 818 818 821 823 825 826 827 827 827 828 829 830 831 832 833 833 834 834 834 834 834 835 835 836 836 837 837 838 839
786 788 792 795 798 801 803 806 809 811 813 816 818 819 820 822 824 826 827 827 827 827 828 829 830 831 832 833 834 834 835 835 835 835 835 836 837 837 838 838 839 840
789 789 792 796 799 802 805 808 810 812 814 817 819 821 822 823 825 826 827 828 828 828 829 830 831 832 833 833 834 834 835 836 836 836 836 837 837 838 839 839 840 840
795 792 794 798 801 804 806 809 812 814 816 818 819 822 824 825 826 827 827 829 830 830 831 831 831 832 833 833 834 835 835 836 836 837 837 837 838 839 839 839 840 841
798 796 798 800 803 806 809 811 814 816 818 819 820 822 824 825 826 827 828 829 831 832 832 832 832 833 833 834 834 835 835 836 836 837 837 838 839 839 839 839 840 840
801 801 801 803 806 809 811 813 815 817 819 821 822 823 825 826 827 827 828 829 830 832 833 833 833 834 834 835 835 835 835 836 837 837 838 838 839 839 840 840 839 840
806 806 805 807 809 812 813 815 817 818 820 822 823 824 826 827 828 829 829 830 831 832 833 834 835 835 835 836 836 836 836 836 837 838 838 839 839 839 840 840 839 839
809 810 811 811 813 815 816 817 819 820 821 823 824 826 827 828 829 829 830 831 832 832 833 835 835 835 836 837 837 838 837 837 838 838 839 839 840 840 840 841 840 839